Regional Weather Roundup
Issued by NWS Upton, NY

Current Version | Previous Version | Text Only | Print | Product List | Glossary On
Versions: 1 2 3 4 5 6 7 8 9 10 11 12 13 14 15 16 17 18 19 20 21 22 23 24 25 26 27 28 29 30 31 32 33 34 35 36 37 38 39 40 41 42 43 44 45 46 47 48 49 50
000 ASUS41 KOKX 040708 RWROKX REGIONAL WEATHER ROUNDUP NATIONAL WEATHER SERVICE NEW YORK NY 300 AM EDT SAT JUL 04 2015 NOTE: "FAIR" INDICATES FEW OR NO CLOUDS BELOW 12,000 FEET WITH NO SIGNIFICANT WEATHER AND/OR OBSTRUCTIONS TO VISIBILITY. NYZ071-072-176-178-NJZ106-104-040800- NEW YORK CITY METRO AREA CITY SKY/WX TMP DP RH WIND PRES REMARKS CENTRAL PARK CLOUDY 71 58 63 VRB3 29.99F LAGUARDIA APRT CLOUDY 72 57 59 S7 29.96F KENNEDY INTL CLOUDY 71 59 65 CALM 29.98F NEWARK/LIBERTY LGT RAIN 71 62 73 SE6 29.96F BRNX BOT. GARD N/A 68 57 68 S2 29.98S TETERBORO CLOUDY 71 59 65 CALM 29.95F $$ NYZ177-179-078>081-040800- LONG ISLAND NEW YORK CITY SKY/WX TMP DP RH WIND PRES REMARKS FARMINGDALE CLOUDY 70 59 68 E3 29.98F ISLIP CLOUDY 67 60 78 E3 29.97S SHIRLEY MOCLDY 63 61 93 CALM 29.99F WESTHAMPTON MOCLDY 59 57 93 CALM 30.00F MONTAUK POINT N/A 64 61 90 CALM 30.01S $$ NYZ052-065-067-040800- HUDSON VALLEY CITY SKY/WX TMP DP RH WIND PRES REMARKS WHITE PLAINS CLOUDY 65 60 84 CALM 29.97F NEWBURGH MOCLDY 68 61 77 CALM 29.98F MONTGOMERY CLOUDY 62 59 90 N3 29.97F POUGHKEEPSIE MOCLDY 62 57 83 CALM 29.96F ALBANY CLOUDY 60 52 74 CALM 29.97F $$ NJZ001-105-106-008-010-013-015-019>022-104-040800- NEW JERSEY CITY SKY/WX TMP DP RH WIND PRES REMARKS NEWARK/LIBERTY LGT RAIN 71 62 73 SE6 29.96F TETERBORO CLOUDY 71 59 65 CALM 29.95F CALDWELL LGT RAIN 70 61 73 S3 29.97F MORRISTOWN LGT RAIN 68 63 83 CALM 29.97S SOMERVILLE LGT RAIN 67 64 90 CALM 29.95S SUSSEX CLOUDY 64 61 90 CALM 29.97F ANDOVER N/A 65 63 93 CALM 29.97F TRENTON CLOUDY 68 64 87 E5 29.95F MILLVILLE CLOUDY 68 66 93 E3 29.93F ATLANTIC CITY CLOUDY 69 66 90 E3 29.94F WRIGHTSTOWN CLOUDY 64 64 97 E1 29.93F TOMS RIVER CLOUDY 64 61 88 CALM 29.96F BELMAR CLOUDY 68 63 83 CALM 29.96F $$ PAZ047>061-062-071-040800- EASTERN PENNSYLVANIA CITY SKY/WX TMP DP RH WIND PRES REMARKS PHILADELPHIA CLOUDY 71 65 81 E3 29.94F ALLENTOWN CLOUDY 71 61 70 CALM 29.95F SCRANTON LGT RAIN 68 60 75 E5 29.95F $$ CTZ002-004>006-009-010-012-RIZ004-006-007-MAZ004-011-015-040800- SOUTHERN NEW ENGLAND IN CT CITY SKY/WX TMP DP RH WIND PRES REMARKS BRADLEY INTL CLOUDY 61 56 83 CALM 29.99S HARTFORD CLOUDY 63 58 83 S3 29.99S DANBURY MOCLDY 64 55 72 CALM 30.00F WTRBRY/OXFORD MOCLDY 63 55 77 CALM 30.01F BRIDGEPORT CLOUDY 68 62 81 E5 29.98F MERIDEN CLOUDY 61 58 90 CALM 29.99F NEW HAVEN CLOUDY 64 62 93 CALM 29.99F CHESTER FAIR 61 59 94 MISG 30.01F GROTON CLOUDY 62 59 90 CALM 30.00S WILLIMANTIC CLOUDY 60 56 86 CALM 30.01S IN RI CITY SKY/WX TMP DP RH WIND PRES REMARKS PROVIDENCE MOCLDY 63 60 90 CALM 30.01S BLOCK ISLAND CLOUDY 64 57 77 CALM 30.00S WESTERLY CLOUDY 60 58 92 CALM 30.01S IN MA CITY SKY/WX TMP DP RH WIND PRES REMARKS BOSTON PTCLDY 62 56 80 S6 30.00 WORCESTER MOCLDY 60 52 74 SW7 30.02R WESTFIELD MOCLDY 55 53 93 CALM 30.00S PROVINCETOWN MOCLDY 61 5 11 S8 30.02S NANTUCKET N/A 61 58 90 SE3 30.02S $$ ANZ330-335-338-340-345-350-353-355-040800- COASTAL MARINE OBSERVATIONS STATION/POSITION TIME SKY/WX TEMP WIND PRES VSBY WAVE AIR SEA DIR/SP/G HT/PER (UTC) (F) (DEG/KT/KT) (MB) (MI) (FT/S) NY HARB ENTRANCE 0650 70 70 130/ 8/ 10 1014.5 3/ 8 4S FIRE IS 0603 71 N/A 3/ 8 20S FIRE ISLAND 0650 69 68 120/ 4/ 6 1014.6 3/ 8 GREAT SOUTH BAY 0600 70 75 200/ 6/ 8 N/A 23SW MTP 0650 67 67 100/ 2/ 2 1015.1 3/ 8 HUDSON CANYON NOT AVBL KINGS POINT 0600 69 66 160/ 2/ 4 1014.6 CENTRAL LI SOUND NOT AVBL EASTERN LI SOUND 0600 64 64 100/ 2/ 2 N/A ROBBINS REEF 0600 71 140/ 8/ 9 1013.9 $$ >>>>>>>>>>>>>>>>>>>>>>>>>>>> KEY <<<<<<<<<<<<<<<<<<<<<<<<<<< > < > SKY/WX - SKY CONDITION/PRESENT WEATHER < > TMP - TEMPERATURE IN FAHRENHEIT < > DP - DEWPOINT IN FAHRENHEIT < > RH - RELATIVE HUMIDITY IN PERCENT < > WIND - DIRECTION AND SPEED IN MPH < > PRES - MEAN SEA LEVEL PRESSURE IN INCHES OF HG < > WCI - WIND CHILL INDEX < > VSB - VISIBILITY IN MILES < > HX - HEAT INDEX < > TC - TEMPERATURE IN CELSIUS < > VRB - VARIABLE WIND DIRECTION < > < >>>>>>>>>>>>>>>>>>>>>>>>>>>> KEY <<<<<<<<<<<<<<<<<<<<<<<<<<<

USA.gov is the U.S. government's official web portal to all federal, state and local government web resources and services.